Terminal Aerodrome Forecast
Issued by NWS Wilmington, NC

Home | Current Version | Previous Version | Text Only | Print | Product List | Glossary On
Versions: 1 2 3 4 5 6 7 8 9 10 11 12 13 14 15 16 17
000
FTUS42 KILM 082320
TAFFLO
TAF
KFLO 082320Z 0900/0924 33008KT P6SM SCT025 OVC100
     FM090200 34010KT P6SM BKN250=

USA.gov is the U.S. government's official web portal to all federal, state and local government web resources and services.